Regional Weather Roundup
Issued by NWS

Home | Current Version | Previous Version | Graphics & Text | Print | Product List | Glossary On
Versions: 1 2 3 4 5 6 7 8 9 10 11 12 13 14 15 16 17 18 19 20 21 22 23 24 25 26 27 28 29 30 31 32 33 34 35 36 37 38 39 40 41 42 43 44 45 46 47 48 49 50
000
ASUS45 KPSR 012310
RWRAZ

ARIZONA HOURLY REGIONAL WEATHER ROUNDUP
NATIONAL WEATHER SERVICE PHOENIX AZ
400 PM MST TUE SEP 01 2015

NOTE: FAIR INDICATES FEW OR NO CLOUDS BELOW 12,000 FEET WITH NO
SIGNIFICANT WEATHER AND/OR OBSTRUCTIONS TO VISIBILITY.

AZZ001>003-036-020000-
NORTHWEST ARIZONA

CITY           SKY/WX    TMP DP  RH WIND       PRES   REMARKS
BULLHEAD CITY  MOSUNNY  102  54  19 SW12G18   29.77S HX 100
KINGMAN        MOSUNNY   90  42  18 SW23      29.97F
$$

AZZ004>008-015-016-018-020000-
NORTH CENTRAL ARIZONA

CITY           SKY/WX    TMP DP  RH WIND       PRES   REMARKS
GRAND CANYON   PTSUNNY   80  48  32 SW17G23   30.20F
WILLIAMS       MOSUNNY   77  48  36 SW17      30.27F
PRESCOTT       MOSUNNY   84  52  33 VRB6      30.11S
FLAGSTAFF      PTSUNNY   72  50  45 SW12      30.27R
PAYSON         PTSUNNY   81  55  41 VRB7G14   30.14F
PAGE           MOSUNNY   89  49  25 NW8       30.02F
$$

AZZ009>014-017-020000-
NORTHEAST ARIZONA

CITY           SKY/WX    TMP DP  RH WIND       PRES   REMARKS
WINSLOW        PTSUNNY   84  53  34 SE5       30.10F
SAINT JOHNS    PTSUNNY   83  48  29 S8        30.16S
WINDOW ROCK    CLOUDY    71  49  45 N12       30.25R
SHOW LOW       PTSUNNY   73  54  49 NE10      30.23R
$$

AZZ023-020000-
GREATER PHOENIX AREA

CITY           SKY/WX    TMP DP  RH WIND       PRES   REMARKS
PHOENIX        MOSUNNY   99  60  27 S5        29.81F
BUCKEYE        MOSUNNY   99  55  23 NW5       29.81F
GLENDALE       PTSUNNY   97  59  28 E9        29.82F
LUKE AFB       MOSUNNY   98  59  27 VRB2      29.81F
DEER VALLEY    PTSUNNY   96  59  29 S7        29.84F
SCOTTSDALE     PTSUNNY   96  60  30 VRB5      29.87F
MESA-GATEWAY   MOSUNNY   97  61  30 S3        29.87F
CHANDLER       PTSUNNY   99  61  28 VRB5      29.84F
$$

AZZ027-028-020000-
SOUTHWEST MARICOPA COUNTY AND PINAL COUNTY

CITY           SKY/WX    TMP DP  RH WIND       PRES   REMARKS
CASA GRANDE    SUNNY     97  61  30 CALM      29.84F
GILA BEND      PTSUNNY  105  51  16 S13G18    29.77F HX 102
$$

AZZ503-504-507>509-020000-
SOUTHEAST ARIZONA

CITY           SKY/WX    TMP DP  RH WIND       PRES   REMARKS
TUCSON         PTSUNNY   94  59  31 E10       29.94F
DAVIS-MONTHAN  SUNNY     92  61  35 SE6       29.93F
NOGALES        PTSUNNY   88  53  30 S8        30.04F
SIERRA VISTA   PTSUNNY   88  50  27 S12       30.10F
DOUGLAS        MOSUNNY   90  51  26 S9        30.04F
SAFFORD        PTSUNNY   88  60  38 NW6       29.98F
$$

AZZ020-021-025-026-031-020000-
SOUTHWEST ARIZONA

CITY           SKY/WX    TMP DP  RH WIND       PRES   REMARKS
YUMA           PTSUNNY  103  54  19 S14G22    29.75F HX 101
$$

CAZ031-033-041-043-047-048-061-020000-
SOUTHERN CALIFORNIA

CITY           SKY/WX    TMP DP  RH WIND       PRES   REMARKS
DOWNTOWN L.A.  MOSUNNY   79  61  53 VRB6      29.87F
L.A. AIRPORT   PTSUNNY   74  62  66 W14       29.89F
SAN DIEGO      CLOUDY    72  61  68 SW9       29.92F
BURBANK        PTSUNNY   81  59  47 S10       29.88S
ONTARIO        PTSUNNY   86  56  35 SW14      29.87F
RIVERSIDE      PTSUNNY   88  54  31 W9        29.86F
PALM SPRINGS   SUNNY     99  64  31 VRB5      29.77F HX 101
EL CENTRO NAS  PTSUNNY  102  62  26 SE7       29.72F HX 104
IMPERIAL       MOSUNNY  103  55  20 SE12      29.71F HX 101
BLYTHE         SUNNY    103  60  24 S9G21     29.74F HX 104
NEEDLES        MOSUNNY  103  50  17 SW13      29.78F HX 100
$$

NVZ020-UTZ003-020000-
SOUTHERN NEVADA-UTAH

CITY           SKY/WX    TMP DP  RH WIND       PRES   REMARKS
LAS VEGAS      MOSUNNY   98  49  18 SE10      29.79F
SALT LAKE CITY PTSUNNY   90  38  16 S13       29.89F
$$

NMZ009-TXZ055-020000-
NEW MEXICO-WEST TEXAS

CITY           SKY/WX    TMP DP  RH WIND       PRES   REMARKS
ALBUQUERQUE    LGT RAIN  82  44  26 SW18G31   30.14S
EL PASO        MOSUNNY   97  41  14 SW9       29.99F
$$


........................KEY........................
SKY/WX - SKY CONDITION/WEATHER
TMP    - TEMPERATURE IN FAHRENHEIT
DP     - DEW POINT IN FAHRENHEIT
RH     - RELATIVE HUMIDITY IN PERCENT
WIND   - DIRECTION AND SPEED IN MILES PER HOUR (MPH)
VRB    - VARIABLE WIND DIRECTION
PRES   - MEAN SEA LEVEL PRESSURE IN INCHES OF MERCURY
         F - FALLING PRESSURE   R - RISING PRESSURE
         S - STEADY PRESSURE
VSB    - VISIBILITY IN MILES
HX     - HEAT INDEX IN FAHRENHEIT
WCI    - WIND CHILL INDEX IN FAHRENHEIT
TC     - TEMPERATURE IN CELSIUS WHICH IS ALSO KNOWN AS
         TEMPERATURE IN CENTIGRADE
AFB    - AIR FORCE BASE
         LUKE AFB IS LUKE AIR FORCE BASE
         DAVIS-MONTHAN IS DAVIS-MONTHAN AIR FORCE BASE
NAS    - NAVAL AIR STATION
         EL CENTRO NAS IS EL CENTRO NAVAL AIR STATION
N/A    - NOT AVAILABLE




USA.gov is the U.S. government's official web portal to all federal, state and local government web resources and services.